Location: Augustenthal
(51.7167°N, 10.2833°E)
Time: 19:41:52
(UTC+00:00)

Cosmos 2228 Rocket - Pass Details

Date: 18 May 2021
Orbit: 618 x 652 km, 82.5° (Epoch: 21 June)

Event Time Altitude Azimuth Distance (km) Brightness Sun altitude
Rises 21:02:26 0° 209° (SSW) 2,908 6.2 -12.9°
Reaches altitude 10° 21:04:46 10° 217° (SW) 2,011 5.5 -13.0°
Maximum altitude 21:08:59 41° 288° (WNW) 936 4.4 -13.4°
Drops below altitude 10° 21:13:17 10° 359° (N) 2,046 6.7 -13.7°
Sets 21:15:40 0° 6° (N) 2,966 7.5 -13.9°
